TimeEDT,TemperatureF,Dew PointF,Humidity,Sea Level PressureIn,VisibilityMPH,Wind Direction,Wind SpeedMPH,Gust SpeedMPH,PrecipitationIn,Events,Conditions,WindDirDegrees,DateUTC
12:33 AM,78.8,75.2,89,29.87,10.0,Calm,Calm,-,N/A,,Overcast,0,2012-10-19 04:33:00
12:53 AM,77.0,75.0,94,29.88,10.0,ESE,3.5,-,N/A,,Mostly Cloudy,120,2012-10-19 04:53:00
1:02 AM,77.0,75.2,94,29.87,10.0,Calm,Calm,-,N/A,,Scattered Clouds,0,2012-10-19 05:02:00
1:53 AM,77.0,75.0,94,29.88,10.0,Calm,Calm,-,N/A,,Partly Cloudy,0,2012-10-19 05:53:00
2:53 AM,77.0,75.0,94,29.86,9.0,Calm,Calm,-,N/A,,Scattered Clouds,0,2012-10-19 06:53:00
3:53 AM,77.0,75.0,94,29.85,8.0,NNE,4.6,-,N/A,,Partly Cloudy,30,2012-10-19 07:53:00
4:19 AM,77.0,75.2,94,29.84,7.0,NNE,3.5,-,N/A,,Mostly Cloudy,30,2012-10-19 08:19:00
4:39 AM,77.0,75.2,94,29.84,6.0,NE,4.6,-,N/A,,Mostly Cloudy,50,2012-10-19 08:39:00
4:53 AM,77.0,75.0,94,29.85,6.0,NE,6.9,-,N/A,,Overcast,50,2012-10-19 08:53:00
5:29 AM,77.0,73.4,89,29.85,10.0,NNE,3.5,-,N/A,,Mostly Cloudy,30,2012-10-19 09:29:00
5:49 AM,77.0,73.4,89,29.85,10.0,Calm,Calm,-,N/A,,Scattered Clouds,0,2012-10-19 09:49:00
5:53 AM,77.0,73.9,90,29.86,10.0,Calm,Calm,-,N/A,,Scattered Clouds,0,2012-10-19 09:53:00
6:40 AM,75.2,73.4,94,29.85,3.0,South,3.5,-,0.06,Rain,Rain,170,2012-10-19 10:40:00
6:49 AM,77.0,73.4,89,29.85,8.0,NNE,3.5,-,0.09,Rain,Light Rain,20,2012-10-19 10:49:00
6:53 AM,77.0,73.9,90,29.86,9.0,North,3.5,-,0.09,Rain,Light Rain,350,2012-10-19 10:53:00
7:00 AM,77.0,73.4,89,29.85,10.0,Calm,Calm,-,0.00,,Mostly Cloudy,0,2012-10-19 11:00:00
7:53 AM,75.9,73.0,91,29.86,7.0,ESE,4.6,-,0.00,,Partly Cloudy,110,2012-10-19 11:53:00
8:53 AM,78.1,73.9,87,29.88,10.0,Calm,Calm,-,N/A,,Mostly Cloudy,0,2012-10-19 12:53:00
9:53 AM,78.1,73.9,87,29.90,10.0,East,4.6,-,N/A,,Mostly Cloudy,80,2012-10-19 13:53:00
10:53 AM,82.0,73.9,76,29.90,10.0,ENE,3.5,-,N/A,,Clear,70,2012-10-19 14:53:00
11:53 AM,82.9,73.0,72,29.88,10.0,Calm,Calm,-,N/A,,Mostly Cloudy,0,2012-10-19 15:53:00
12:24 PM,84.2,73.4,70,29.87,10.0,Calm,Calm,-,N/A,,Scattered Clouds,0,2012-10-19 16:24:00
12:53 PM,86.0,73.9,67,29.86,10.0,Variable,3.5,-,N/A,,Partly Cloudy,0,2012-10-19 16:53:00
1:53 PM,87.1,72.0,61,29.85,10.0,WSW,9.2,-,N/A,,Mostly Cloudy,250,2012-10-19 17:53:00
2:53 PM,87.1,72.0,61,29.83,10.0,SW,8.1,-,N/A,,Clear,230,2012-10-19 18:53:00
3:53 PM,87.1,73.0,63,29.82,10.0,WSW,8.1,-,N/A,,Scattered Clouds,250,2012-10-19 19:53:00
4:53 PM,87.1,72.0,61,29.82,10.0,West,10.4,-,N/A,,Clear,260,2012-10-19 20:53:00
5:53 PM,84.0,73.0,69,29.83,10.0,WNW,8.1,-,N/A,,Clear,290,2012-10-19 21:53:00
6:53 PM,81.0,72.0,74,29.83,10.0,West,8.1,-,N/A,,Clear,270,2012-10-19 22:53:00
7:53 PM,80.1,72.0,76,29.85,10.0,West,6.9,-,N/A,,Clear,280,2012-10-19 23:53:00
8:53 PM,78.1,72.0,81,29.87,10.0,NW,3.5,-,N/A,,Clear,320,2012-10-20 00:53:00
9:53 PM,78.1,71.1,79,29.89,10.0,Calm,Calm,-,N/A,,Clear,0,2012-10-20 01:53:00
10:53 PM,77.0,71.1,82,29.89,10.0,Calm,Calm,-,N/A,,Clear,0,2012-10-20 02:53:00
11:53 PM,75.9,72.0,87,29.89,10.0,Calm,Calm,-,N/A,,Clear,0,2012-10-20 03:53:00